CW0179 Weather Reports


time (UTC)temp
C
wind
direction
speed
KPH
gust
KPH
rain 1hr
cm
rain 24hr
cm
rain mn
cm
humidity
%
barometer
mb
20260506113731 16 83 0.0 4.8 0.00 0.00 0.00 88 1009.3
20260506112706 15 103 0.0 1.6 0.00 0.00 0.00 93 1009.2
20260506111647 15 72 0.0 1.6 0.00 0.00 0.00 94 1009.4
20260506105528 13 179 0.0 0.0 0.00 0.00 0.00 98 1009.4
20260506104551 12 134 0.0 0.0 0.00 0.00 0.00 98 1009.4
20260506103532 12 212 0.0 0.0 0.00 0.00 0.00 97 1009.3
20260506083231 12 112 0.0 0.0 0.00 0.00 0.00 95 1009.6
20260506082207 12 111 0.0 0.0 0.00 0.00 0.00 95 1009.6
20260506081226 12 111 0.0 0.0 0.00 0.00 0.00 95 1009.7
20260506072959 12 111 0.0 0.0 0.00 0.00 0.00 95 1009.7
20260506072018 12 111 0.0 0.0 0.00 0.00 0.00 94 1009.8
20260506071022 12 111 0.0 0.0 0.00 0.00 0.00 94 1009.8
20260506061604 13 111 0.0 0.0 0.00 0.00 0.00 90 1009.7
20260506060533 13 111 0.0 0.0 0.00 0.00 0.00 89 1009.7
20260506050513 16 111 0.0 1.6 0.00 0.00 0.00 83 1009.9
20260506044452 16 82 0.0 0.0 0.00 0.00 0.00 81 1010.1
20260506043503 16 82 0.0 0.0 0.00 0.00 0.00 82 1010.0
20260506042448 16 83 0.0 0.0 0.00 0.00 0.00 81 1009.9
20260506041501 16 143 0.0 0.0 0.00 0.00 0.00 81 1009.9
20260506035357 16 331 0.0 3.2 0.00 0.00 0.00 80 1010.0
20260506034408 16 125 0.0 0.0 0.00 0.00 0.00 78 1010.0
20260506033344 16 98 0.0 0.0 0.00 0.00 0.00 78 1009.8
20260506032329 16 129 0.0 0.0 0.00 0.00 0.00 78 1009.8
20260506030224 17 96 0.0 0.0 0.00 0.00 0.00 77 1009.8
20260506024021 17 78 0.0 0.0 0.00 0.00 0.00 75 1009.9
20260506023040 17 78 0.0 0.0 0.00 0.00 0.00 74 1009.9
20260506022021 17 30 0.0 4.8 0.00 0.00 0.00 74 1009.8
20260506020951 17 248 0.0 8.0 0.00 0.00 0.00 73 1009.8
20260506015921 18 119 0.0 8.0 0.00 0.00 0.00 72 1009.7
20260506014908 18 113 0.0 0.0 0.00 0.00 0.00 72 1009.6
20260506013913 18 72 0.0 0.0 0.00 0.00 0.00 71 1009.5
20260506011815 18 83 0.0 3.2 0.00 0.00 0.00 71 1009.2
20260506005633 18 146 0.0 3.2 0.00 0.00 0.00 70 1008.9
20260506004639 18 330 0.0 0.0 0.00 0.00 0.00 70 1008.9
20260506001319 18 77 0.0 3.2 0.00 0.00 0.00 68 1008.5
20260506000338 19 77 0.0 1.6 0.00 0.00 0.00 67 1008.4
20260505235324 19 49 0.0 4.8 0.00 0.00 0.00 66 1008.3
20260505234347 19 179 0.0 8.0 0.00 0.00 0.00 65 1008.1
20260505233326 20 176 0.0 8.0 0.00 0.00 0.00 64 1007.9
20260505232309 20 74 0.0 4.8 0.00 0.00 0.00 63 1007.8
20260505231237 20 76 0.0 3.2 0.00 0.00 0.00 63 1007.7
20260505230301 21 102 0.0 1.6 0.00 0.00 0.00 62 1007.5
20260505224139 21 84 0.0 6.4 0.00 0.00 0.00 59 1007.3
20260505223137 22 90 0.0 6.4 0.00 0.00 0.00 59 1007.5
20260505222128 22 100 0.0 4.8 0.00 0.00 0.00 57 1007.5
20260505221113 22 78 0.0 4.8 0.00 0.00 0.00 57 1007.5
20260505213750 22 68 0.0 17.7 0.00 0.00 0.00 57 1007.4
20260505212751 22 148 1.6 17.7 0.00 0.00 0.00 58 1007.3
20260505211807 22 80 1.6 9.7 0.00 0.00 0.00 58 1007.3
20260505210737 23 77 1.6 9.7 0.00 0.00 0.00 58 1007.1
20260505205727 23 36 3.2 9.7 0.00 0.00 0.00 58 1007.1
20260505204716 23 101 1.6 9.7 0.00 0.00 0.00 57 1007.4
20260505203729 23 65 1.6 11.3 0.00 0.00 0.00 56 1007.2
20260505202727 23 62 3.2 11.3 0.00 0.00 0.00 57 1007.3
20260505200533 23 91 3.2 9.7 0.00 0.00 0.00 57 1007.5
20260505195558 23 108 1.6 9.7 0.00 0.00 0.00 57 1007.7
20260505194537 23 108 1.6 9.7 0.00 0.00 0.00 57 1007.8
20260505191237 23 72 3.2 9.7 0.00 0.00 0.00 59 1008.2
20260505190256 24 68 1.6 8.0 0.00 0.00 0.00 57 1008.4
20260505185257 24 68 1.6 8.0 0.00 0.00 0.00 58 1008.4
20260505184314 24 17 1.6 11.3 0.00 0.00 0.00 56 1008.5
20260505183328 24 134 1.6 11.3 0.00 0.00 0.00 55 1008.6
20260505182324 25 77 1.6 9.7 0.00 0.00 0.00 56 1008.5
20260505181314 25 1 1.6 9.7 0.00 0.00 0.00 57 1008.5
20260505180304 25 108 3.2 11.3 0.00 0.00 0.00 54 1008.5
20260505175329 25 49 1.6 11.3 0.00 0.00 0.00 53 1008.6
20260505174330 25 66 1.6 9.7 0.00 0.00 0.00 55 1008.6
20260505173258 25 15 3.2 9.7 0.00 0.00 0.00 55 1008.6
20260505172253 25 6 1.6 8.0 0.00 0.00 0.00 53 1008.7
20260505171315 25 64 1.6 8.0 0.00 0.00 0.00 52 1008.8
20260505170249 25 100 1.6 8.0 0.00 0.00 0.00 54 1008.9
20260505165312 25 65 3.2 12.9 0.00 0.00 0.00 53 1009.0
20260505164258 25 6 3.2 12.9 0.00 0.00 0.00 56 1009.1
20260505163320 25 350 3.2 11.3 0.00 0.00 0.00 53 1009.1
20260505162333 25 344 1.6 11.3 0.00 0.00 0.00 53 1009.2
20260505161333 25 73 0.0 8.0 0.00 0.00 0.00 52 1009.6
20260505160350 25 77 0.0 8.0 0.00 0.00 0.00 56 1009.6
20260505153327 24 64 0.0 11.3 0.00 0.00 0.00 55 1010.0
20260505152344 23 84 1.6 11.3 0.00 0.00 0.00 55 1010.0
20260505151334 23 166 0.0 4.8 0.00 0.00 0.00 55 1010.2
20260505150324 23 70 1.6 6.4 0.00 0.00 0.00 57 1010.3
20260505140146 21 71 1.6 9.7 0.00 0.00 0.00 66 1010.2
20260505123929 16 122 0.0 1.6 0.00 0.00 0.00 85 1010.1
20260505122937 14 126 0.0 0.0 0.00 0.00 0.00 89 1010.2
20260505121929 13 125 0.0 0.0 0.00 0.00 0.00 90 1010.5
20260505120924 13 189 0.0 0.0 0.00 0.00 0.00 92 1010.4
20260505115922 13 188 0.0 0.0 0.00 0.00 0.00 94 1010.4
20260505114944 12 189 0.0 0.0 0.00 0.00 0.00 98 1010.6